Date String (YYYY-MM-DD hh:mm:ss) UTC,Instrument flags,absolute air pressure of the measurement (hPa),sample flow rate (lpm),inlet stack bypass flow (lpm),air temperature of the measurement (°C),ambient temperature measured by the external sensor (°C),aerosol sample conditioner tube jacket temperature (°C),OPC LED temperature (°C),internal box temperature (°C),relative humidity of the measurement (%),span deviation,mass concentration of particles derived from Lorenz-Mie calculation of OPC scattering (μg/m³),mass concentration of particles derived from Lorenz-Mie calculation of OPC scattering (μg/m³),mass concentration of particles derived from Lorenz-Mie calculation of OPC scattering (μg/m³)
DateTimeUTC,F1_M11,P_M11,Q1_M11,Q2_M11,T1_M11,T2_M11,T3_M11,T4_M11,T5_M11,U1_M11,ZSPAN_M11,X0_M11,X2_M11,X1_M11
2024-02-18 01:00:00,SystemResetWarning,0831.5,4.99,000.00,018.3,017.6,000.0,026.9,020.0,14.3,0000.0,0010.11,0004.89,0004.52
2024-02-18 01:01:00,SystemResetWarning,0831.5,4.99,000.00,018.3,017.6,000.0,026.9,020.0,14.6,0000.0,0010.20,0004.90,0004.53
2024-02-18 01:02:00,SystemResetWarning,0831.5,5.01,000.00,018.3,017.6,000.0,026.9,020.0,14.7,0000.0,0009.92,0004.92,0004.55
2024-02-18 01:03:00,SystemResetWarning,0831.4,5.01,000.00,018.3,017.6,000.0,026.9,020.0,14.9,0000.0,0010.46,0004.95,0004.58
2024-02-18 01:04:00,SystemResetWarning,0831.5,5.00,000.00,018.3,017.6,000.0,026.9,020.0,15.0,0000.0,0011.10,0005.00,0004.61
2024-02-18 01:05:00,SystemResetWarning,0831.4,5.00,000.00,018.3,017.6,000.0,026.9,020.0,15.1,0000.0,0011.47,0005.10,0004.67
2024-02-18 01:06:00,SystemResetWarning,0831.5,5.00,000.00,018.3,017.6,000.0,026.9,020.0,15.2,0001.2,0010.98,0005.16,0004.73
2024-02-18 01:07:00,SystemResetWarning,0831.5,5.00,000.00,018.3,017.6,000.0,026.9,020.0,15.2,0004.1,0010.82,0005.22,0004.82
2024-02-18 01:08:00,SystemResetWarning,0831.5,5.01,000.00,018.3,017.6,000.0,026.9,020.0,15.3,0001.4,0010.93,0005.29,0004.90
2024-02-18 01:09:00,SystemResetWarning,0831.5,5.01,000.00,018.3,017.6,000.0,026.9,020.0,15.3,0000.1,0010.51,0005.35,0004.98
2024-02-18 01:10:00,SystemResetWarning,0831.4,5.00,000.00,018.3,017.6,000.0,026.9,020.0,15.3,0000.0,0010.24,0005.45,0005.07
2024-02-18 01:11:00,SystemResetWarning,0831.4,5.00,000.00,018.3,017.6,000.0,026.9,020.0,15.3,0000.1,0010.33,0005.54,0005.14
2024-02-18 01:12:00,SystemResetWarning,0831.5,5.00,000.00,018.3,017.6,000.0,026.9,020.0,15.3,0000.5,0010.64,0005.62,0005.22
2024-02-18 01:13:00,SystemResetWarning,0831.4,4.99,000.00,018.2,017.6,000.0,026.9,020.0,15.3,0000.0,0010.81,0005.67,0005.28
2024-02-18 01:14:00,SystemResetWarning,0831.4,4.99,000.00,018.2,017.6,000.0,026.9,020.0,15.4,0000.0,0010.37,0005.74,0005.35
2024-02-18 01:15:00,SystemResetWarning,0831.5,5.01,000.00,018.2,017.6,000.0,026.9,020.0,15.4,0000.0,0010.39,0005.82,0005.46
2024-02-18 01:16:00,SystemResetWarning,0831.4,5.00,000.00,018.2,017.6,000.0,026.9,020.0,15.3,0000.0,0011.13,0005.86,0005.53
2024-02-18 01:17:00,SystemResetWarning,0831.4,5.01,000.00,018.2,017.6,000.0,026.9,020.0,15.3,0000.0,0011.87,0005.89,0005.56
2024-02-18 01:18:00,SystemResetWarning,0831.5,4.99,000.00,018.2,017.6,000.0,026.9,020.0,15.3,0000.0,0012.00,0005.89,0005.56
2024-02-18 01:19:00,SystemResetWarning,0831.5,4.99,000.00,018.2,017.5,000.0,026.9,020.0,15.3,0000.0,0011.66,0005.84,0005.53
2024-02-18 01:20:00,SystemResetWarning,0831.5,4.99,000.00,018.2,017.5,000.0,026.9,020.0,15.3,0000.0,0011.36,0005.81,0005.51
2024-02-18 01:21:00,SystemResetWarning,0831.4,4.99,000.00,018.2,017.5,000.0,026.9,020.0,15.3,0000.0,0011.56,0005.78,0005.47
2024-02-18 01:22:00,SystemResetWarning,0831.5,5.00,000.00,018.2,017.5,000.0,026.9,020.0,15.4,0000.0,0011.91,0005.77,0005.44
2024-02-18 01:23:00,SystemResetWarning,0831.5,5.01,000.00,018.2,017.5,000.0,026.9,020.0,15.4,0000.0,0011.70,0005.74,0005.40
2024-02-18 01:24:00,SystemResetWarning,0831.4,5.01,000.00,018.2,017.5,000.0,026.9,020.0,15.4,0000.0,0011.51,0005.71,0005.37
2024-02-18 01:25:00,SystemResetWarning,0831.4,5.00,000.00,018.2,017.5,000.0,026.9,020.0,15.4,0000.0,0011.36,0005.65,0005.32
2024-02-18 01:26:00,SystemResetWarning,0831.4,5.00,000.00,018.2,017.5,000.0,026.9,020.0,15.4,0000.0,0010.76,0005.57,0005.23
2024-02-18 01:27:00,SystemResetWarning,0831.4,5.00,000.00,018.2,017.5,000.0,026.9,020.0,15.4,0000.0,0009.64,0005.48,0005.14
2024-02-18 01:28:00,SystemResetWarning,0831.4,5.01,000.00,018.2,017.5,000.0,026.9,020.0,15.5,0000.0,0008.71,0005.42,0005.09
2024-02-18 01:29:00,SystemResetWarning,0831.4,5.00,000.00,018.2,017.5,000.0,026.9,020.0,15.5,0000.0,0008.49,0005.36,0005.04
2024-02-18 01:30:00,SystemResetWarning,0831.4,4.99,000.00,018.2,017.5,000.0,026.9,020.0,15.5,0000.0,0008.89,0005.37,0005.02
2024-02-18 01:31:00,SystemResetWarning,0831.4,5.00,000.00,018.2,017.5,000.0,026.9,020.0,15.4,0000.0,0009.34,0005.37,0005.01
2024-02-18 01:32:00,SystemResetWarning,0831.4,5.00,000.00,018.2,017.5,000.0,026.9,020.0,15.5,0000.0,0009.10,0005.34,0005.00
2024-02-18 01:33:00,SystemResetWarning,0831.4,5.01,000.00,018.2,017.5,000.0,026.9,020.0,15.5,0000.0,0008.66,0005.32,0005.00
2024-02-18 01:34:00,SystemResetWarning,0831.4,5.00,000.00,018.2,017.5,000.0,026.9,020.0,15.5,0000.0,0008.57,0005.31,0005.01
2024-02-18 01:35:00,SystemResetWarning,0831.4,4.99,000.00,018.2,017.5,000.0,026.8,020.0,15.6,0000.0,0008.62,0005.34,0005.00
2024-02-18 01:36:00,SystemResetWarning,0831.3,5.00,000.00,018.2,017.4,000.0,026.9,020.0,15.7,0000.8,0008.66,0005.34,0004.99
2024-02-18 01:37:00,SystemResetWarning,0831.3,5.00,000.00,018.2,017.6,000.0,026.9,020.1,15.7,0001.6,0008.61,0005.32,0005.00
2024-02-18 01:38:00,SystemResetWarning,0831.3,5.01,000.00,018.4,018.3,000.0,027.0,020.5,15.6,0001.6,0008.62,0005.34,0004.99
2024-02-18 01:39:00,SystemResetWarning,0831.3,4.98,000.00,018.5,018.7,000.0,027.0,020.6,15.4,0002.1,0008.68,0005.34,0004.98
2024-02-18 01:40:00,SystemResetWarning,0831.3,5.00,000.00,018.5,018.5,000.0,026.9,020.4,15.4,0002.3,0008.79,0005.36,0004.97
2024-02-18 01:41:00,SystemResetWarning,0831.3,5.01,000.00,018.5,018.4,000.0,026.9,020.3,15.5,0002.3,0008.51,0005.37,0004.97
2024-02-18 01:42:00,SystemResetWarning,0831.3,5.01,000.00,018.5,018.3,000.0,026.8,020.1,15.5,0002.4,0007.98,0005.36,0004.95
2024-02-18 01:43:00,SystemResetWarning,0831.3,5.00,000.00,018.4,018.1,000.0,026.8,020.1,15.6,0001.1,0007.95,0005.34,0004.95
2024-02-18 01:44:00,SystemResetWarning,0831.3,5.00,000.00,018.4,018.0,000.0,026.8,020.1,15.6,0001.3,0007.89,0005.31,0004.93
2024-02-18 01:45:00,SystemResetWarning,0831.3,4.99,000.00,018.4,017.9,000.0,026.8,020.0,15.7,0001.5,0007.95,0005.27,0004.92
2024-02-18 01:46:00,SystemResetWarning,0831.3,5.00,000.00,018.4,017.9,000.0,026.8,020.0,15.8,0000.7,0007.91,0005.23,0004.92
2024-02-18 01:47:00,SystemResetWarning,0831.4,5.00,000.00,018.3,017.8,000.0,026.8,020.0,15.9,0000.8,0007.92,0005.23,0004.91
2024-02-18 01:48:00,SystemResetWarning,0831.3,5.01,000.00,018.3,017.8,000.0,026.8,020.0,15.9,0000.0,0008.17,0005.26,0004.91
2024-02-18 01:49:00,SystemResetWarning,0831.3,5.00,000.00,018.3,017.7,000.0,026.8,020.0,16.0,0000.0,0008.88,0005.26,0004.93
2024-02-18 01:50:00,SystemResetWarning,0831.3,5.00,000.00,018.3,017.7,000.0,026.8,020.0,16.0,0000.0,0008.77,0005.24,0004.94
2024-02-18 01:51:00,SystemResetWarning,0831.3,5.00,000.00,018.3,017.7,000.0,026.8,020.0,16.0,0000.0,0008.63,0005.21,0004.95
2024-02-18 01:52:00,SystemResetWarning,0831.3,4.99,000.00,018.3,017.7,000.0,026.8,020.0,16.0,0000.0,0008.48,0005.17,0004.93
2024-02-18 01:53:00,SystemResetWarning,0831.3,5.00,000.00,018.3,017.7,000.0,026.8,020.0,15.9,0000.0,0008.75,0005.17,0004.93
2024-02-18 01:54:00,SystemResetWarning,0831.3,5.00,000.00,018.3,017.7,000.0,026.8,020.0,15.7,0000.0,0008.81,0005.18,0004.93
2024-02-18 01:55:00,SystemResetWarning,0831.3,5.00,000.00,018.2,017.6,000.0,026.8,020.0,15.7,0000.0,0008.95,0005.20,0004.93
2024-02-18 01:56:00,SystemResetWarning,0831.3,5.00,000.00,018.2,017.6,000.0,026.8,020.0,15.7,0000.0,0008.97,0005.24,0004.95
2024-02-18 01:57:00,SystemResetWarning,0831.2,5.00,000.00,018.2,017.6,000.0,026.8,020.0,15.7,0000.0,0009.42,0005.25,0004.95
2024-02-18 01:58:00,SystemResetWarning,0831.2,5.01,000.00,018.2,017.6,000.0,026.8,020.0,15.6,0000.0,0009.46,0005.28,0004.96
2024-02-18 01:59:00,SystemResetWarning,0831.2,5.00,000.00,018.2,017.6,000.0,026.8,020.0,15.4,0000.0,0009.24,0005.25,0004.96
